{"data":{"norad_id":57125,"intl_designator":"2023-090AA","name":"STARLINK-6100","alt_names":[],"object_type":"PAYLOAD","status":"ACTIVE","operator":null,"country":"US","launch_date":"2023-06-23","launch_site_code":"AFETR","launch_vehicle":null,"mission":null,"orbit_class":"UNKNOWN","rcs_meters":null,"size_class":null,"mass_kg":null,"dimensions":null,"purposes":["comms"],"wikipedia_slug":null,"has_3d_model":false,"image_url":null,"decayed_at":null,"tle_current":{"epoch":"2026-05-25T04:24:56.329056Z","epoch_age_seconds":53064,"freshness":"FRESH","line1":"1 57125U 23090AA  26145.18398529 -.00000095  00000+0  60894-5 0  9993","line2":"2 57125  43.0033 191.2175 0001733 285.3645  74.7015 15.27570806162057","mean_motion":15.27570806,"eccentricity":0.0001733,"inclination_deg":43.0033,"raan_deg":191.2175,"arg_perigee_deg":285.3645,"mean_anomaly_deg":74.7015,"bstar":6.0894e-6,"rev_number":16205,"period_min":94.267316077524,"perigee_km":481.88757799982,"apogee_km":484.2656746427,"semimajor_km":6861.2136263213,"source":"CELESTRAK","updated_at":"2026-05-25T13:38:18.244188Z"}}}